Location: Ravensburg
(47.7866°N, 9.6124°E)
Time: 19:36:23
(UTC+01:00)

LilacSat-2 - Visible Passes

Search period start: 07 March 2026 00:00
Search period end: 17 March 2026 00:00
Orbit: 419 x 427 km, 97.5° (Epoch: 7 March)

Date Brightness Start Highest point End Pass type
(mag) Time Alt. Az. Time Alt. Az. Time Alt. Az.
7 Mar ? 19:37:12 10° S 19:40:24 57° W 19:43:38 10° NNW visible
8 Mar ? 18:54:10 10° SE 18:57:11 36° ENE 19:00:14 10° N visible
8 Mar ? 20:27:42 10° SW 20:29:33 14° W 20:31:25 10° WNW visible
9 Mar ? 19:42:50 10° S 19:45:59 48° W 19:49:11 10° NNW visible
10 Mar ? 18:59:35 10° SE 19:02:39 42° ENE 19:05:47 10° N visible
10 Mar ? 20:33:37 10° WSW 20:35:05 12° W 20:36:33 10° WNW visible
11 Mar ? 19:48:18 10° S 19:51:24 41° W 19:54:32 10° NNW visible
12 Mar ? 19:04:48 10° SSE 19:07:57 48° ENE 19:11:08 10° N visible
12 Mar ? 20:39:32 10° WSW 20:40:26 11° W 20:41:20 10° WNW visible
13 Mar ? 19:53:37 10° SSW 19:56:38 35° W 19:59:40 10° NNW visible
14 Mar ? 19:09:52 10° SSE 19:13:04 56° ENE 19:16:17 10° N visible
15 Mar ? 19:58:45 10° SSW 20:01:41 31° W 20:04:38 10° NNW visible
16 Mar ? 19:14:47 10° SSE 19:18:00 66° ENE 19:21:14 10° N visible
